TimeCDT,TemperatureF,Dew PointF,Humidity,Sea Level PressureIn,VisibilityMPH,Wind Direction,Wind SpeedMPH,Gust SpeedMPH,PrecipitationIn,Events,Conditions,WindDirDegrees,DateUTC
12:52 AM,45.0,39.9,82,30.05,10.0,NW,13.8,21.9,N/A,,Overcast,310,2013-10-16 05:52:00
1:52 AM,44.1,39.0,82,30.05,10.0,NW,15.0,-,N/A,,Overcast,310,2013-10-16 06:52:00
2:52 AM,44.1,39.0,82,30.05,10.0,NW,15.0,23.0,N/A,,Overcast,320,2013-10-16 07:52:00
3:52 AM,44.1,39.0,82,30.05,10.0,NW,12.7,-,N/A,,Overcast,320,2013-10-16 08:52:00
4:52 AM,44.1,39.0,82,30.05,10.0,NW,12.7,-,N/A,,Overcast,310,2013-10-16 09:52:00
5:52 AM,44.1,39.0,82,30.06,10.0,NW,10.4,-,N/A,,Overcast,320,2013-10-16 10:52:00
6:52 AM,44.1,39.0,82,30.05,10.0,NW,8.1,-,N/A,,Overcast,310,2013-10-16 11:52:00
7:52 AM,43.0,37.9,82,30.06,10.0,NW,9.2,-,N/A,,Overcast,310,2013-10-16 12:52:00
8:52 AM,41.0,37.0,86,30.09,10.0,WNW,8.1,-,N/A,,Partly Cloudy,300,2013-10-16 13:52:00
9:52 AM,44.1,37.9,79,30.09,10.0,WNW,13.8,-,N/A,,Partly Cloudy,290,2013-10-16 14:52:00
10:52 AM,46.9,39.0,74,30.08,10.0,NW,9.2,-,N/A,,Partly Cloudy,310,2013-10-16 15:52:00
11:52 AM,48.9,37.0,64,30.08,10.0,WNW,8.1,-,N/A,,Partly Cloudy,300,2013-10-16 16:52:00
12:52 PM,52.0,35.1,53,30.06,10.0,Variable,5.8,-,N/A,,Clear,0,2013-10-16 17:52:00
1:52 PM,54.0,36.0,51,30.04,10.0,NW,8.1,-,N/A,,Clear,320,2013-10-16 18:52:00
2:52 PM,55.0,36.0,49,30.00,10.0,NNW,8.1,-,N/A,,Clear,340,2013-10-16 19:52:00
3:52 PM,55.9,34.0,44,29.99,10.0,NNW,9.2,-,N/A,,Clear,340,2013-10-16 20:52:00
4:52 PM,55.9,35.1,45,29.98,10.0,NNW,10.4,-,N/A,,Clear,330,2013-10-16 21:52:00
5:52 PM,55.0,34.0,45,29.97,10.0,NNW,5.8,-,N/A,,Clear,330,2013-10-16 22:52:00
6:52 PM,51.1,35.1,54,29.97,10.0,Calm,Calm,-,N/A,,Clear,0,2013-10-16 23:52:00
7:52 PM,44.1,36.0,73,29.98,10.0,Calm,Calm,-,N/A,,Clear,0,2013-10-17 00:52:00
8:52 PM,41.0,35.1,79,29.98,10.0,Calm,Calm,-,N/A,,Clear,0,2013-10-17 01:52:00
9:52 PM,39.0,35.1,86,29.97,10.0,ESE,3.5,-,N/A,,Clear,110,2013-10-17 02:52:00
10:52 PM,36.0,34.0,93,29.98,10.0,Calm,Calm,-,N/A,,Clear,0,2013-10-17 03:52:00
11:52 PM,35.1,32.0,89,29.97,10.0,Calm,Calm,-,N/A,,Clear,0,2013-10-17 04:52:00